User: anonymous   Login
Location: Hiram
(41.3130°N, 81.1440°W)
Time: 14:50:05
(UTC-04:00)
Language:

Iridium 62 - Orbit

View from above orbital plane
View from above orbital plane
View from above satellite
View from above satellite

Ground track
Ground track

The orbit data is extracted from the following two-line orbital elements,

1 25285U 98021A   16145.18441979  .00000209  00000-0  67488-4 0  9990
2 25285  86.3981  26.5384 0002106  88.6931 271.4506 14.34219126949269
Epoch (UTC): 24 May 2016 04:25:33
Eccentricity: 0.0002106
inclination: 86.3981°
perigee height: 776 km
apogee height: 779 km
right ascension of ascending node: 26.5384°
argument of perigee: 88.6931°
revolutions per day: 14.34219126
mean anomaly at epoch: 271.4506°
orbit number at epoch: 94926

The dashed part of the orbit path shows where the satellite is in the earth's shadow,  

DLR